sat.trackr.live / text

‹ back to catalog

ONEWEB-0665

NORAD 55825 · 2023-029AF

PAYLOAD ACTIVE UNKNOWN

§ Identity

Operator
Country
UK
Launch date
2023-03-09
Launch site
AFETR
Launch vehicle
Mass (kg)
RCS (m²)

Purposes: comms

External: N2YO · Heavens-Above · Gunter

§ Orbital elements

Epoch: 2026-05-25T04:05:57.444000Z

Period
109.55 min
Inclination
87.8934°
Eccentricity
0.0001665
Mean motion
13.14501630 rev/d
Perigee alt
1,204.5 km
Apogee alt
1,207.1 km
Semi-major
7,583.9 km
B*
7.4075e-4
RAAN
294.3159°
Arg perigee
88.1752°
Mean anomaly
271.9568°
Rev number
15,638

§ Raw data

ONEWEB-06651 55825U 23029AF  26145.17080375  .00000287  00000+0  74075-3 0  99922 55825  87.8934 294.3159 0001665  88.1752 271.9568 13.14501630156383

JSON: /api/v1/satellites/55825 · /tle

For live sub-satellite position, see the globe view (requires WebGL).

§ Visibility from observer

Set your observer location to see the next 7 days of passes ≥ 10°. The values pass through the URL so the page stays shareable.

No JS? Fill the form by hand. The geolocation button needs JavaScript.